Location: Mococo
(38.0255°N, 122.1161°W)
Time: 18:44:29
(UTC+00:00)

IRS-1D - Pass Details

Date: 13 February 2026
Orbit: 736 x 811 km, 98.8° (Epoch: 10 March)

Event Time Altitude Azimuth Distance (km) Brightness Sun altitude
Rises 13:41:10 0° 8° (N) 3,295 6.8 -16.2°
Reaches altitude 10° 13:43:34 10° 4° (N) 2,351 6.0 -15.7°
Maximum altitude 13:48:35 54° 288° (WNW) 939 3.6 -14.7°
Drops below altitude 10° 13:53:30 10° 212° (SSW) 2,288 5.7 -13.8°
Sets 13:55:48 0° 208° (SSW) 3,199 6.5 -13.3°
